Location: Cortada Guamacho
(10.5667°N, 67.0833°W)
Time: 09:58:41
(UTC+00:00)

SWIFT - Pass Details

Date: 04 July 2022
Orbit: 539 x 553 km, 20.6° (Epoch: 14 August)

Event Time Altitude Azimuth Distance (km) Brightness Sun altitude
Exits shadow 08:17:14 48° 97° (E) 699 3.0 -25.7°
Drops below altitude 10° 08:20:18 10° 106° (ESE) 1,779 5.4 -25.1°
Sets 08:22:34 0° 107° (ESE) 2,670 6.4 -24.6°
